Weather History for K96D - May, 2013

Change the Weather History Date:

Saturday, May 25, 2013

  Actual Average Record
Temperature  
Mean Temperature 58 °F -  
Max Temperature 66 °F - - ()
Min Temperature 50 °F - - ()
Degree Days  
Heating Degree Days 7    
Growing Degree Days 8 (Base 50)    
Moisture  
Dew Point 55 °F    
Average Humidity 94    
Maximum Humidity 100    
Minimum Humidity 73    
Precipitation  
Precipitation 0.00 in - - ()
Sea Level Pressure  
Sea Level Pressure 30.12 in    
Wind  
Wind Speed 11 mph (SE)    
Max Wind Speed 20 mph    
Max Gust Speed 26 mph    
Visibility 9 miles    
Events      
T = Trace of Precipitation, MM = Missing Value Source: NWS Daily Summary

Daily Weather History Graph

Daily Weather History Graph

Search for Another Location

Airport or City:

Trip Planner

Search our weather history database for the weather conditions in past years. The results will help you decide how hot, cold, wet, or windy it might be!

Date:

Astronomy

May. 25, 2013 Rise Set
Actual Time 5:37 AM CDT 9:20 PM CDT
Civil Twilight 4:57 AM CDT 10:00 PM CDT
Nautical Twilight 4:03 AM CDT 10:54 PM CDT
Astronomical Twilight 2:45 AM CDT 12:14 AM CDT
Moon 10:08 PM CDT (5/25) 6:07 AM CDT (5/25)
Length of Visible Light 17h 02m
Length of Day
15h 42m
Full, 100% of the Moon is Illuminated
May 25
Full
May 31
Last Quarter
Jun 8
New
Jun 16
First Quarter
Jun 23
Full

Hourly Weather History & Observations

Time (CDT) Temp. Dew Point Humidity Pressure Visibility Wind Dir Wind Speed Gust Speed Precip Events Conditions
12:15 AM 53.6 °F 48.2 °F 82% 30.14 in 10.0 mi SE 19.6 mph 26.5 mph N/A   Overcast
12:35 AM 53.6 °F 48.2 °F 82% 30.14 in 10.0 mi SSE 16.1 mph 19.6 mph N/A   Overcast
12:55 AM 53.6 °F 50.0 °F 88% 30.14 in 10.0 mi SSE 12.7 mph 20.7 mph N/A   Overcast
1:15 AM 53.6 °F 51.8 °F 94% 30.15 in 10.0 mi SSE 10.4 mph - N/A   Overcast
1:35 AM 53.6 °F 53.6 °F 100% 30.14 in 10.0 mi SSE 11.5 mph 21.9 mph N/A   Overcast
1:55 AM 51.8 °F 51.8 °F 100% 30.15 in 10.0 mi SE 9.2 mph - N/A   Overcast
2:15 AM 50.0 °F 50.0 °F 100% 30.14 in 7.0 mi SE 9.2 mph - N/A   Mostly Cloudy
2:35 AM 50.0 °F 50.0 °F 100% 30.14 in 10.0 mi SE 10.4 mph - N/A   Overcast
2:55 AM 50.0 °F 50.0 °F 100% 30.13 in 7.0 mi ESE 10.4 mph - N/A   Overcast
3:15 AM 50.0 °F 50.0 °F 100% 30.12 in 10.0 mi ESE 9.2 mph - N/A   Overcast
3:35 AM 50.0 °F 50.0 °F 100% 30.13 in 10.0 mi ESE 6.9 mph - N/A   Overcast
3:55 AM 50.0 °F 50.0 °F 100% 30.12 in 10.0 mi ESE 8.1 mph - N/A   Overcast
4:15 AM 50.0 °F 50.0 °F 100% 30.12 in 10.0 mi ESE 6.9 mph - N/A   Overcast
4:35 AM 50.0 °F 50.0 °F 100% 30.12 in 10.0 mi East 8.1 mph - N/A   Overcast
4:55 AM 50.0 °F 50.0 °F 100% 30.12 in 5.0 mi ESE 6.9 mph - N/A   Overcast
5:15 AM 50.0 °F 50.0 °F 100% 30.12 in 6.0 mi ESE 9.2 mph - N/A   Overcast
5:35 AM 50.0 °F 50.0 °F 100% 30.12 in 6.0 mi ESE 8.1 mph - N/A   Overcast
5:55 AM 50.0 °F 50.0 °F 100% 30.13 in 6.0 mi ESE 9.2 mph - N/A   Overcast
6:15 AM 50.0 °F 50.0 °F 100% 30.13 in 5.0 mi SE 11.5 mph - N/A   Overcast
6:35 AM 50.0 °F 50.0 °F 100% 30.14 in 5.0 mi SE 11.5 mph - N/A   Overcast
6:55 AM 51.8 °F 51.8 °F 100% 30.14 in 5.0 mi SE 11.5 mph - N/A   Overcast
7:15 AM 51.8 °F 51.8 °F 100% 30.14 in 7.0 mi SE 10.4 mph - N/A   Overcast
7:35 AM 51.8 °F 51.8 °F 100% 30.14 in 8.0 mi SE 13.8 mph 17.3 mph N/A   Overcast
7:55 AM 51.8 °F 51.8 °F 100% 30.13 in 9.0 mi SE 12.7 mph 17.3 mph N/A   Overcast
8:15 AM 51.8 °F 51.8 °F 100% 30.13 in 8.0 mi ESE 11.5 mph - N/A   Overcast
8:35 AM 51.8 °F 51.8 °F 100% 30.14 in 10.0 mi SE 11.5 mph - N/A   Overcast
8:55 AM 53.6 °F 53.6 °F 100% 30.14 in 10.0 mi SE 10.4 mph - N/A   Overcast
9:15 AM 53.6 °F 53.6 °F 100% 30.14 in 10.0 mi SE 11.5 mph 16.1 mph N/A   Overcast
9:35 AM 53.6 °F 53.6 °F 100% 30.13 in 10.0 mi SE 12.7 mph - N/A   Overcast
9:55 AM 53.6 °F 53.6 °F 100% 30.14 in 10.0 mi SE 10.4 mph - N/A   Overcast
10:15 AM 55.4 °F 55.4 °F 100% 30.13 in 10.0 mi SE 12.7 mph - N/A   Overcast
10:35 AM 55.4 °F 55.4 °F 100% 30.14 in 10.0 mi SE 11.5 mph - N/A   Overcast
10:55 AM 55.4 °F 55.4 °F 100% 30.14 in 10.0 mi ESE 12.7 mph - N/A   Overcast
11:15 AM 57.2 °F 57.2 °F 100% 30.14 in 10.0 mi SE 10.4 mph - N/A   Overcast
11:35 AM 57.2 °F 57.2 °F 100% 30.13 in 10.0 mi ESE 11.5 mph - N/A   Overcast
11:55 AM 57.2 °F 57.2 °F 100% 30.13 in 10.0 mi ESE 11.5 mph - N/A   Overcast
12:15 PM 57.2 °F 57.2 °F 100% 30.13 in 10.0 mi ESE 11.5 mph - N/A   Overcast
12:35 PM 57.2 °F 57.2 °F 100% 30.13 in 10.0 mi ESE 9.2 mph - N/A   Overcast
12:55 PM 59.0 °F 59.0 °F 100% 30.13 in 10.0 mi ESE 11.5 mph 16.1 mph N/A   Overcast
1:15 PM 59.0 °F 59.0 °F 100% 30.13 in 10.0 mi SE 11.5 mph - N/A   Overcast
1:35 PM 59.0 °F 59.0 °F 100% 30.12 in 10.0 mi ESE 11.5 mph - N/A   Overcast
1:55 PM 59.0 °F 59.0 °F 100% 30.12 in 10.0 mi ESE 12.7 mph - N/A   Overcast
2:15 PM 60.8 °F 60.8 °F 100% 30.12 in 10.0 mi ESE 12.7 mph - N/A   Overcast
2:35 PM 60.8 °F 59.0 °F 94% 30.12 in 10.0 mi ESE 12.7 mph - N/A   Overcast
2:55 PM 62.6 °F 59.0 °F 88% 30.12 in 10.0 mi ESE 12.7 mph - N/A   Overcast
3:15 PM 62.6 °F 59.0 °F 88% 30.12 in 10.0 mi SE 12.7 mph - N/A   Overcast
3:35 PM 62.6 °F 59.0 °F 88% 30.12 in 10.0 mi SE 11.5 mph - N/A   Overcast
3:55 PM 62.6 °F 59.0 °F 88% 30.12 in 10.0 mi ESE 9.2 mph - N/A   Overcast
4:15 PM 62.6 °F 57.2 °F 82% 30.11 in 10.0 mi ESE 9.2 mph - N/A   Overcast
4:35 PM 62.6 °F 60.8 °F 94% 30.12 in 10.0 mi ESE 8.1 mph - N/A   Overcast
4:55 PM 62.6 °F 60.8 °F 94% 30.13 in 10.0 mi SE 5.8 mph - N/A   Overcast
5:15 PM 64.4 °F 60.8 °F 88% 30.11 in 10.0 mi East 8.1 mph - N/A   Overcast
5:35 PM 64.4 °F 59.0 °F 83% 30.09 in 10.0 mi East 9.2 mph - N/A   Overcast
5:55 PM 64.4 °F 57.2 °F 77% 30.09 in 10.0 mi ESE 9.2 mph - N/A   Overcast
6:15 PM 64.4 °F 57.2 °F 77% 30.10 in 10.0 mi ESE 5.8 mph - N/A   Overcast
6:35 PM 66.2 °F 57.2 °F 73% 30.09 in 10.0 mi ESE 9.2 mph - N/A   Overcast
6:55 PM 66.2 °F 57.2 °F 73% 30.08 in 10.0 mi East 8.1 mph - N/A   Mostly Cloudy
7:15 PM 66.2 °F 57.2 °F 73% 30.08 in 10.0 mi ESE 8.1 mph - N/A   Partly Cloudy
7:35 PM 66.2 °F 57.2 °F 73% 30.08 in 10.0 mi ESE 9.2 mph - N/A   Partly Cloudy
7:55 PM 64.4 °F 59.0 °F 83% 30.09 in 10.0 mi SE 8.1 mph - N/A   Scattered Clouds
8:15 PM 64.4 °F 60.8 °F 88% 30.09 in 10.0 mi ESE 6.9 mph - N/A   Mostly Cloudy
8:35 PM 64.4 °F 59.0 °F 83% 30.10 in 10.0 mi ESE 5.8 mph - N/A   Overcast
8:55 PM 64.4 °F 59.0 °F 83% 30.10 in 10.0 mi ESE 5.8 mph - N/A   Overcast
9:15 PM 62.6 °F 62.6 °F 100% 30.10 in 10.0 mi ESE 6.9 mph - N/A   Overcast
9:35 PM 62.6 °F 62.6 °F 100% 30.10 in 10.0 mi SE 8.1 mph - N/A   Overcast
9:55 PM 62.6 °F 60.8 °F 94% 30.10 in 10.0 mi SSE 8.1 mph - N/A   Overcast
10:15 PM 64.4 °F 59.0 °F 83% 30.09 in 10.0 mi South 9.2 mph - N/A   Overcast
10:35 PM 62.6 °F 57.2 °F 82% 30.10 in 10.0 mi SSE 8.1 mph - N/A   Overcast
10:55 PM 60.8 °F 57.2 °F 88% 30.10 in 10.0 mi South 8.1 mph - N/A   Mostly Cloudy
11:15 PM 60.8 °F 57.2 °F 88% 30.11 in 10.0 mi South 9.2 mph - N/A   Overcast
11:35 PM 59.0 °F 57.2 °F 94% 30.10 in 10.0 mi South 6.9 mph - N/A   Overcast
11:55 PM 59.0 °F 57.2 °F 94% 30.10 in 10.0 mi South 6.9 mph - N/A   Mostly Cloudy